Location: *
(29.1167°S, 130.0000°E)
Time: 04:45:30
(UTC+00:00)

Cosmos 1726 - Pass Details

Date: 21 July 2019
Orbit: 484 x 500 km, 82.5° (Epoch: 20 August)

Event Time Altitude Azimuth Distance (km) Brightness Sun altitude
Rises 09:17:43 0° 351° (N) 2,577 6.2 -8.0°
Reaches altitude 10° 09:19:49 10° 349° (N) 1,703 5.2 -8.4°
Maximum altitude 09:23:32 73° 264° (W) 534 2.4 -9.2°
Drops below altitude 10° 09:27:20 10° 179° (S) 1,731 4.7 -10.0°
Sets 09:29:28 0° 176° (S) 2,623 5.6 -10.4°
